To NAV CANADA Home Page Login to a new session Search on AWWS site Feedback and Comments Disclaimer Vers la page française équivalente Tips FAQ What's new on the site To the Forecasts and Observations / NOTAM section To "File a Flight Plan" website Publications and other links Update of the User's profile FIC Telephone Numbers My Weather Data Folder Route Weather Data Regional Weather Data Local Weather Data To the Forecasts and Observations / NOTAM section
Request Generated 09/28/2016 at 23:51:59 UTC . Weather information available at that time is displayed.

METAR/TAF

QUAQTAQ/QC    

LWIS CYHA 282300Z AUTO 23013KT 09/01 A3012=
LWIS CYHA 282200Z AUTO 19006KT 09/02 A3012=
LWIS CYHA 282100Z AUTO 22004KT 09/02 A3012=

*** REMARK        : Forecast period has ended; this was the last TAF issued
*** REMARQUE : La période de prévision est échue; ceci était le dernier TAF qui a été émis
TAF CYHA 281338Z 2814/2821 23008KT P6SM SCT250
RMK NXT FCST WILL BE ISSUED AT 291345Z=
Your time UTC time
Weather data provided by Environment Canada and NAV CANADA